Location: Coupvray
(48.8929°N, 2.7967°E)
Time: 10:14:19
(UTC+00:00)

Resurs 1-4 Rocket - Pass Details

Date: 14 July 2020
Orbit: 800 x 814 km, 98.6° (Epoch: 05 August)

Event Time Altitude Azimuth Distance (km) Brightness Sun altitude
Rises 03:01:37 0° 5° (N) 3,350 6.2 -8.1°
Reaches altitude 10° 03:04:26 10° 350° (N) 2,412 5.1 -7.8°
Maximum altitude 03:08:25 22° 302° (WNW) 1,716 3.7 -7.4°
Drops below altitude 10° 03:12:23 10° 253° (WSW) 2,395 4.0 -6.9°
Enters shadow 03:13:26 - 247° (WSW) 2,722 4.3 -6.8°
